Regional Weather Roundup
Issued by NWS Goodland, KS

Home | Current Version | Previous Version | Graphics & Text | Print | Product List | Glossary On
Versions: 1 2 3 4 5 6 7 8 9 10 11 12 13 14 15 16 17 18 19 20 21 22 23 24 25 26 27 28 29 30 31 32 33 34 35 36 37 38 39 40 41 42 43 44 45 46 47 48 49 50
000
ASUS43 KGLD 231459
RWRGLD

GOODLAND FORECAST AREA HOURLY WEATHER ROUNDUP
NATIONAL WEATHER SERVICE GOODLAND KS
900 AM MDT TUE AUG 23 2016

...OFFICIAL OBSERVATIONS...

CITY           SKY/WX    TMP DP  RH WIND       PRES   REMARKS
GOODLAND KS    SUNNY     70  52  52 NW12      29.89S
HILL CITY KS   SUNNY     79  66  64 SW13G22   29.85S
IMPERIAL NEB   SUNNY     73  62  68 W7        29.86S
MCCOOK NEB     SUNNY     74  65  73 SW12      29.83S
AKRON CO       SUNNY     73  43  33 W12       29.98R
BURLINGTON CO  SUNNY     79  41  25 NW12      29.94R
LIMON CO       SUNNY     78  36  21 NW7       30.04R
$$

...UNOFFICIAL OBSERVATIONS...

CITY           SKY/WX    TMP DP  RH WIND       PRES   REMARKS
$$




USA.gov is the U.S. government's official web portal to all federal, state and local government web resources and services.